Location: Godiavel Galaoual
(15.2485°N, 12.6604°W)
Time: 10:13:26
(UTC+00:00)

Explorer 11/Cluster Stage 4 - Visible Passes

Search period start: 15 June 2021 00:00
Search period end: 25 June 2021 00:00
Orbit: 467 x 1257 km, 28.8° (Epoch: 14 June)

Date Brightness Start Highest point End Pass type
(mag) Time Alt. Az. Time Alt. Az. Time Alt. Az.
15 Jun 7.6 03:50:07 57° SSE 03:50:11 57° SSE 03:57:34 10° ENE visible
15 Jun 7.7 05:32:13 12° W 05:39:35 57° NNW 05:46:17 10° NE visible
16 Jun 7.6 03:39:27 64° SE 03:39:27 64° SE 03:46:34 10° ENE visible
16 Jun 7.9 05:21:33 14° W 05:28:26 52° NNW 05:35:15 10° NE visible
17 Jun 7.6 03:28:44 66° E 03:28:44 66° E 03:35:31 10° ENE visible
17 Jun 8.0 05:10:50 15° W 05:17:16 48° NNW 05:24:11 10° NE visible
18 Jun 7.8 03:17:59 62° ENE 03:17:59 62° ENE 03:24:24 10° ENE visible
18 Jun 8.2 05:00:04 17° W 05:06:07 44° NNW 05:13:07 10° NE visible
19 Jun 8.0 03:07:11 56° ENE 03:07:11 56° ENE 03:13:15 10° ENE visible
19 Jun 8.3 04:49:16 18° WNW 04:54:58 41° NNW 05:02:02 10° NE visible
20 Jun 8.2 02:56:22 49° NE 02:56:22 49° NE 03:02:03 10° ENE visible
20 Jun 8.5 04:38:27 18° WNW 04:43:50 38° NNW 04:50:56 10° NE visible
21 Jun 8.4 02:45:31 43° NE 02:45:31 43° NE 02:50:49 10° ENE visible
21 Jun 8.6 04:27:37 19° WNW 04:32:43 36° NNW 04:39:50 10° NE visible
22 Jun 8.6 02:34:41 38° NE 02:34:41 38° NE 02:39:33 10° ENE visible
22 Jun 8.7 04:16:46 19° WNW 04:21:36 34° N 04:28:42 10° NE visible
23 Jun 8.8 02:23:49 33° NE 02:23:49 33° NE 02:28:16 10° ENE visible
23 Jun 8.8 04:05:54 20° WNW 04:10:30 33° N 04:17:36 10° NE visible
23 Jun 9.0 05:54:10 10° NW 06:01:11 30° N 06:07:36 10° ENE visible
24 Jun 9.0 02:12:59 29° NE 02:12:59 29° NE 02:16:57 10° NE visible
24 Jun 8.8 03:55:04 20° NW 03:59:26 32° N 04:06:30 10° NE visible
24 Jun 9.0 05:42:57 10° NW 05:50:07 32° N 05:56:47 10° ENE visible
